Orbital Elements at Epoch 2459000.5 (2020-May-31.0) TDB
Reference: JPL 15 (heliocentric ecliptic J2000)
Element | Value | Uncertainty (1-sigma) | Units |
e | .06255240040119145 | 5.4549e-08 | |
a | 3.170600657097309 | 4.8433e-08 | au |
q | 2.972271975282277 | 1.6584e-07 | au |
i | 10.15643391729247 | 5.8093e-06 | deg |
node | 132.7887035732016 | 3.7189e-05 | deg |
peri | 182.1972320844146 | 6.4098e-05 | deg |
M | 94.6447856302896 | 5.376e-05 | deg |
tp | 2458458.368133393495 (2018-Dec-05.86813339) | 0.00030596 | TDB |
period | 2062.104855313673 5.65 | 4.725e-05 1.294e-07 | d yr |
n | .1745789012970629 | 4.0002e-09 | deg/d |
Q | 3.36892933891234 | 5.1462e-08 | au |
|
| | Orbit Determination Parameters
Additional Information
|